Sioux City, IA

11:56 PM CDT on September 24, 2017 (GMT -0500)
Sioux Gateway

Weather History for KSUX - April, 2012

Change the Weather History Date:

Saturday, April 14, 2012

  Actual Average Record
Temperature  
Mean Temperature 56 °F 49 °F  
Max Temperature 70 °F 62 °F 90 °F (1954)
Min Temperature 41 °F 36 °F 17 °F (1950)
Degree Days  
Heating Degree Days 9 16  
Month to date heating degree days 164 266  
Since 1 July heating degree days 5330 6444  
Cooling Degree Days 0 0  
Month to date cooling degree days 13 0  
Year to date cooling degree days 41 0  
Growing Degree Days 5 (Base 50)    
Moisture  
Dew Point 52 °F    
Average Humidity 80    
Maximum Humidity 100    
Minimum Humidity 59    
Precipitation  
Precipitation 2.49 in 0.10 in 2.49 in (2012)
Month to date precipitation 3.49 1.27  
Year to date precipitation 6.96 4.56  
Snow  
Snow 0.00 in 0.00 in 6.20 in (1949)
Month to date snowfall 0.0 1.2  
Since 1 July snowfall 18.3 34.2  
Snow Depth 0.00 in    
Sea Level Pressure  
Sea Level Pressure 29.66 in    
Wind  
Wind Speed 11 mph (ESE)    
Max Wind Speed 35 mph    
Max Gust Speed 46 mph    
Visibility 7 miles    
Events Fog , Rain , Thunderstorm    
T = Trace of Precipitation, MM = Missing Value Source: NWS Daily Summary

Daily Weather History Graph

Daily Weather History Graph

Search for Another Location

Airport or City:

Trip Planner

Search our weather history database for the weather conditions in past years. The results will help you decide how hot, cold, wet, or windy it might be!

Date:

Astronomy

Apr. 14, 2012 Rise Set
Actual Time 6:45 AM CDT 8:06 PM CDT
Civil Twilight 6:16 AM CDT 8:35 PM CDT
Nautical Twilight 5:41 AM CDT 9:11 PM CDT
Astronomical Twilight 5:04 AM CDT 9:48 PM CDT
Moon 3:17 AM CDT (4/14) 1:53 PM CDT (4/14)
Length of Visible Light 14h 19m
Length of Day
13h 21m
Last Quarter, 37% of the Moon is Illuminated
Apr 14
Last Quarter
Apr 21
New
Apr 29
First Quarter
May 5
Full
May 12
Last Quarter

Hourly Weather History & Observations

Time (CDT) Temp. Windchill Dew Point Humidity Pressure Visibility Wind Dir Wind Speed Gust Speed Precip Events Conditions
12:52 AM 52.0 °F - 48.0 °F 86% 29.81 in 10.0 mi ESE 3.5 mph - N/A   Clear
1:52 AM 46.9 °F - 46.0 °F 97% 29.81 in 10.0 mi Calm Calm - N/A   Clear
2:52 AM 46.9 °F - 46.0 °F 97% 29.81 in 8.0 mi ESE 3.5 mph - N/A   Clear
3:45 AM 46.4 °F 42.9 °F 44.6 °F 93% 29.81 in 9.0 mi ESE 6.9 mph - N/A   Partly Cloudy
3:52 AM 46.0 °F 41.9 °F 45.0 °F 96% 29.81 in 10.0 mi ESE 8.1 mph - N/A   Partly Cloudy
4:28 AM 44.6 °F 41.4 °F 44.6 °F 100% 29.80 in 10.0 mi ESE 5.8 mph - N/A   Mostly Cloudy
4:52 AM 44.1 °F 40.8 °F 43.0 °F 96% 29.80 in 8.0 mi ESE 5.8 mph - N/A   Scattered Clouds
5:52 AM 44.1 °F 41.5 °F 43.0 °F 96% 29.79 in 6.0 mi ESE 4.6 mph - N/A   Clear
6:52 AM 43.0 °F - 43.0 °F 100% 29.78 in 4.0 mi Calm Calm - N/A   Clear
7:00 AM 42.8 °F - 42.8 °F 100% 29.78 in 1.8 mi Calm Calm - N/A   Clear
7:09 AM 41.0 °F - 41.0 °F 100% 29.78 in 0.2 mi Calm Calm - N/A Fog Fog
7:24 AM 42.8 °F 40.1 °F 42.8 °F 100% 29.79 in 1.0 mi SE 4.6 mph - N/A   Clear
7:28 AM 42.8 °F 40.1 °F 42.8 °F 100% 29.79 in 3.0 mi SE 4.6 mph - N/A   Clear
7:52 AM 46.9 °F - 46.0 °F 97% 29.79 in 9.0 mi Calm Calm - N/A   Clear
8:52 AM 53.1 °F - 48.0 °F 83% 29.81 in 10.0 mi SSE 3.5 mph - N/A   Clear
9:52 AM 57.9 °F - 51.1 °F 78% 29.79 in 10.0 mi ESE 6.9 mph - N/A   Clear
10:52 AM 63.0 °F - 54.0 °F 72% 29.80 in 10.0 mi SE 13.8 mph - N/A   Clear
11:24 AM 62.6 °F - 55.4 °F 77% 29.77 in 8.0 mi SE 12.7 mph 21.9 mph N/A   Scattered Clouds
11:33 AM 62.6 °F - 55.4 °F 77% 29.76 in 7.0 mi SSE 12.7 mph - N/A   Mostly Cloudy
11:52 AM 64.0 °F - 57.0 °F 78% 29.74 in 8.0 mi SE 12.7 mph - N/A   Mostly Cloudy
12:11 PM 64.4 °F - 57.2 °F 77% 29.71 in 9.0 mi ESE 16.1 mph - N/A   Scattered Clouds
12:52 PM 69.1 °F - 57.0 °F 65% 29.68 in 10.0 mi ESE 15.0 mph - N/A   Clear
1:52 PM 68.0 °F - 53.1 °F 59% 29.65 in 10.0 mi East 15.0 mph 21.9 mph N/A   Partly Cloudy
2:18 PM 66.2 °F - 53.6 °F 64% 29.65 in 10.0 mi East 10.4 mph - 0.00 in Rain , Thunderstorm Light Rain
2:52 PM 62.1 °F - 55.9 °F 80% 29.68 in 1.2 mi SSW 8.1 mph - 0.18 in Rain , Thunderstorm Heavy Thunderstorms and Rain
2:56 PM 60.8 °F - 57.2 °F 88% 29.70 in 0.5 mi WSW 13.8 mph 23.0 mph N/A Fog , Rain , Thunderstorm Heavy Thunderstorms and Rain
3:06 PM 59.0 °F - 57.2 °F 94% 29.68 in 0.2 mi NNW 9.2 mph 18.4 mph 0.95 in Fog , Rain , Thunderstorm Heavy Thunderstorms and Rain
3:14 PM 57.2 °F - 57.2 °F 100% 29.67 in 0.8 mi North 13.8 mph 17.3 mph 1.23 in Rain , Thunderstorm Heavy Thunderstorms and Rain
3:25 PM 57.2 °F - 53.6 °F 88% 29.68 in 0.8 mi North 9.2 mph 21.9 mph 1.60 in Rain , Thunderstorm Heavy Thunderstorms and Rain
3:32 PM 57.2 °F - 55.4 °F 94% 29.66 in 3.0 mi North 12.7 mph 21.9 mph 1.62 in Rain , Thunderstorm Thunderstorms and Rain
3:52 PM 57.0 °F - 54.0 °F 89% 29.65 in 3.0 mi NE 15.0 mph - 1.66 in Rain , Thunderstorm Heavy Rain
4:18 PM 57.2 °F - 55.4 °F 94% 29.59 in 7.0 mi East 15.0 mph 29.9 mph 0.07 in Rain , Thunderstorm Light Rain
4:36 PM 59.0 °F - 55.4 °F 88% 29.62 in 9.0 mi East 12.7 mph 24.2 mph 0.09 in Rain , Thunderstorm Light Rain
4:52 PM 57.9 °F - 54.0 °F 87% 29.60 in 7.0 mi East 20.7 mph 27.6 mph 0.12 in Rain , Thunderstorm Thunderstorms and Rain
5:32 PM 57.2 °F - 55.4 °F 94% 29.60 in 9.0 mi East 13.8 mph 24.2 mph 0.13 in Rain Light Rain
5:52 PM 57.9 °F - 55.0 °F 90% 29.64 in 4.0 mi ESE 20.7 mph 29.9 mph 0.18 in Rain Rain
6:52 PM 57.9 °F - 55.9 °F 93% 29.44 in 10.0 mi East 25.3 mph 35.7 mph 0.07 in   Clear
7:52 PM 60.1 °F - 55.9 °F 86% 29.49 in 10.0 mi ESE 6.9 mph - N/A   Mostly Cloudy
8:07 PM 59.0 °F - 55.4 °F 88% 29.50 in 10.0 mi SE 4.6 mph - N/A   Overcast
8:52 PM 59.0 °F - 57.9 °F 96% 29.47 in 10.0 mi ESE 10.4 mph - 0.00 in Rain Light Rain
9:01 PM 59.0 °F - 57.2 °F 94% 29.48 in 10.0 mi SE 5.8 mph - 0.00 in   Overcast
9:47 PM 57.2 °F - 55.4 °F 94% 29.45 in 5.0 mi ESE 18.4 mph 23.0 mph 0.04 in Rain , Thunderstorm Heavy Thunderstorms and Rain
9:52 PM 57.9 °F - 55.9 °F 93% 29.45 in 4.0 mi ESE 12.7 mph 23.0 mph 0.14 in Rain , Thunderstorm Heavy Thunderstorms and Rain
10:02 PM 57.2 °F - 57.2 °F 100% 29.46 in 10.0 mi ESE 8.1 mph - 0.00 in Rain Light Rain
10:52 PM 59.0 °F - 55.9 °F 90% 29.41 in 10.0 mi ESE 9.2 mph 19.6 mph 0.00 in   Overcast
11:17 PM 59.0 °F - 55.4 °F 88% 29.41 in 10.0 mi SE 16.1 mph 23.0 mph N/A Thunderstorm Overcast
11:35 PM 59.0 °F - 55.4 °F 88% 29.43 in 2.0 mi SSE 13.8 mph - 0.06 in Rain , Thunderstorm Heavy Thunderstorms and Rain
11:44 PM 59.0 °F - 55.4 °F 88% 29.46 in 5.0 mi South 19.6 mph 25.3 mph 0.08 in Rain , Thunderstorm Light Thunderstorms and Rain
11:52 PM 59.0 °F - 55.9 °F 90% 29.41 in 7.0 mi SSE 20.7 mph 29.9 mph 0.10 in Rain , Thunderstorm Light Thunderstorms and Rain